Williams, AZ (86046)

7:51 PM MST on August 24, 2016 (GMT -0700)
Williams, AZ | | Change Station

Elev 7100 ft 35.23 °N, 112.17 °W | Updated 1 minute ago

Overcast
Overcast
58.8 °F
Feels Like 58.8 °F
N
0.0
Wind Variable Wind from ESE
Gusts 0.0 mph

Today
High -- | Low -- °F
--% Chance of Precip.
Yesterday
High -- | Low -- °F
Precip. -- in
Pressure 30.09 in
Visibility 8.0 miles
Clouds Few 5000 ft
Scattered Clouds 8500 ft
Mostly Cloudy 11000 ft
Dew Point 49 °F
Humidity 69%
Rainfall 0.11 in
Snow Depth Not available.
5:55 AM 7:05 PM
Waning Gibbous, 50% visible
METAR KFLG 250157Z 36009KT 8SM -RA FEW050 SCT085 BKN110 16/08 A3035 RMK AO2 RAB55 PRESRR SLP190 P0000 T01610083
Pressure 30.09 in
Visibility 8.0 miles
Clouds Few 5000 ft
Scattered Clouds 8500 ft
Mostly Cloudy 11000 ft
Dew Point 49 °F
Humidity 69%
Rainfall 0.11 in
Snow Depth Not available.
5:55 AM 7:05 PM
Waning Gibbous, 50% visible
METAR KFLG 250157Z 36009KT 8SM -RA FEW050 SCT085 BKN110 16/08 A3035 RMK AO2 RAB55 PRESRR SLP190 P0000 T01610083

10-Day Weather Forecast

Almanac

Astronomy

Aug. 24, 2016 Rise Set
Actual Time
Civil Twilight
Nautical Twilight
Astronomical Twilight
Moon
Length of Visible Light
Length of Day
Tomorrow will be .
, % of the Moon is Illuminated

Today's Extremes

State Highs State Lows

Community

WunderPhotos

Upload Photos

1,934,779 photos uploaded!

WunderBlog® & News

Nearby

Air Quality

  Air Quality AQ Index Pollutant
Not available.

Snow Depth

Station Depth Elevation

Earthquake Activity

City Distance Mag. Time & Date
Minimum magnitude displayed is 2.5.

Coastal Water Temperatures

Place Temperature

Stations

Nearby Weather Stations

Station Location Temp. Windchill Dew Point Humidity Wind Precip. Elev Updated Type
                   

Watches & Warnings

There are currently no watches in effect.